Погода в Биробиджане

Россия / Еврейская автономная область     48°47′40″N   132°55′18″E
темп.,
°C
ветер,
м/с
пор.,
м/с
влажн.,
%
обл.,
%
осадки,
мм/ч
давл.,
гПа
погр.,
м
12 апреля, пн
пн1201:00+5св2251100 0.0 102018
04:00+4с2252100 0.0 101937
07:00+3ссв0157100 0.3 101869
10:00+2ссв3565100 1.6 1016371
13:00+3всв3387100 0.8 1013429
16:00+5св4482100 0.9 1009403
19:00+6св4681100 0.0 1006265
22:00+4с3591100 0.0 1006161
13 апреля, вт
вт1301:00+4зюз2392100 0.6 1004127
04:00+2з2597100 2.1 1003411
07:00−1зсз2397100 2.9 1003253
10:00−1зсз4589100 4.8 1004470
13:00+1з5663100 0.4 10031055
16:00+1сз7855100 1.1 10031462
19:00−1з7957100 0.1 10031468
22:00−3з71175100 0.1 1003961
14 апреля, ср
ср1401:00−2з71057100 0.0 10031002
04:00−3з7106079 0.0 1003726
07:00−4зсз7106267 0.0 1004698
10:00−1зсз6745100 0.0 10051412
13:00+1зсз7836100 0.0 10062548
16:00+2зсз8940100 0.1 10062560
19:00+1зсз684690 0.1 10081505
22:00−2з49602 0.1 1011266
15 апреля, чт
чт1501:00−2зсз49650 0.0 1012299
04:00−3з36640 0.0 1013149
07:00−3з25640 0.0 1014152
10:00+2зюз23430 0.0 1014779
13:00+6ю33305 0.0 10141653
16:00+7вюв44285 0.0 10121516
19:00+7в5836100 0.0 1012549
22:00+2в71561100 0.0 1011512
16 апреля, пт
пт1601:00+1в61464100 0.0 1010543
04:000в6127699 0.0 1009456
07:000в51274100 0.0 1008450
10:00+2в71074100 0.4 1006588
13:00+4вюв61294100 5.0 10041034
16:00+2зюз51496100 8.1 1004545
19:00+5св2379100 0.3 100667
22:00+2св239267 0.9 100945